Hailey, ID

2:44 AM MDT on August 29, 2016 (GMT -0600)
Friedman Memorial

Weather History for KSUN - October, 2011

Change the Weather History Date:

Thursday, October 13, 2011

  Actual Average Record
Temperature  
Mean Temperature 50 °F -  
Max Temperature 64 °F 59 °F 77 °F (1999)
Min Temperature 35 °F 33 °F 21 °F (2008)
Degree Days  
Heating Degree Days 16    
Moisture  
Dew Point 30 °F    
Average Humidity 61    
Maximum Humidity 75    
Minimum Humidity 30    
Precipitation  
Precipitation 0.00 in - - ()
Sea Level Pressure  
Sea Level Pressure 30.16 in    
Wind  
Wind Speed 9 mph (NW)    
Max Wind Speed 17 mph    
Max Gust Speed 18 mph    
Visibility 10 miles    
Events      
Averages and records for this station are not official NWS values.
T = Trace of Precipitation, MM = Missing Value Source: NWS Daily Summary

Daily Weather History Graph

Daily Weather History Graph

Search for Another Location

Airport or City:

Trip Planner

Search our weather history database for the weather conditions in past years. The results will help you decide how hot, cold, wet, or windy it might be!

Date:

Astronomy

Oct. 13, 2011 Rise Set
Actual Time 7:48 AM MDT 6:57 PM MDT
Civil Twilight 7:19 AM MDT 7:26 PM MDT
Nautical Twilight 6:46 AM MDT 7:59 PM MDT
Astronomical Twilight 6:13 AM MDT 8:32 PM MDT
Moon 7:30 PM MDT (10/13) 9:29 AM MDT (10/13)
Length of Visible Light 12h 06m
Length of Day
11h 08m
Full, 98% of the Moon is Illuminated
Oct 13
Full
Oct 19
Last Quarter
Oct 26
New
Nov 2
First Quarter
Nov 10
Full

Hourly Weather History & Observations

Time (MDT) Temp. Windchill Dew Point Humidity Pressure Visibility Wind Dir Wind Speed Gust Speed Precip Events Conditions
12:15 AM 41.0 °F 36.4 °F 30.2 °F 65% 30.23 in 10.0 mi NW 6.9 mph - N/A   Clear
12:35 AM 39.2 °F - 32.0 °F 75% 30.23 in 10.0 mi Calm Calm - N/A   Clear
12:55 AM 37.4 °F 34.9 °F 30.2 °F 75% 30.22 in 10.0 mi WNW 3.5 mph - N/A   Clear
1:15 AM 37.4 °F 32.8 °F 30.2 °F 75% 30.21 in 10.0 mi WNW 5.8 mph - N/A   Clear
1:35 AM 37.4 °F 32.1 °F 30.2 °F 75% 30.22 in 10.0 mi WNW 6.9 mph - N/A   Clear
1:55 AM 37.4 °F 29.8 °F 30.2 °F 75% 30.21 in 10.0 mi NNW 11.5 mph 16.1 mph N/A   Clear
2:15 AM 37.4 °F 27.8 °F 30.2 °F 75% 30.21 in 10.0 mi NNW 17.3 mph - N/A   Clear
2:35 AM 37.4 °F 28.5 °F 30.2 °F 75% 30.21 in 10.0 mi NNW 15.0 mph - N/A   Mostly Cloudy
2:55 AM 37.4 °F 28.9 °F 30.2 °F 75% 30.21 in 10.0 mi NNW 13.8 mph 17.3 mph N/A   Overcast
3:15 AM 37.4 °F 30.3 °F 28.4 °F 70% 30.21 in 10.0 mi NNW 10.4 mph - N/A   Mostly Cloudy
3:35 AM 35.6 °F 27.5 °F 28.4 °F 75% 30.20 in 10.0 mi NNW 11.5 mph - N/A   Scattered Clouds
3:55 AM 35.6 °F 27.5 °F 28.4 °F 75% 30.20 in 10.0 mi NW 11.5 mph - N/A   Clear
4:15 AM 35.6 °F 28.0 °F 28.4 °F 75% 30.20 in 10.0 mi NW 10.4 mph - N/A   Scattered Clouds
4:35 AM 35.6 °F 27.1 °F 28.4 °F 75% 30.20 in 10.0 mi NNW 12.7 mph - N/A   Scattered Clouds
4:55 AM 35.6 °F 26.6 °F 28.4 °F 75% 30.19 in 10.0 mi NNW 13.8 mph - N/A   Scattered Clouds
5:15 AM 35.6 °F 29.2 °F 26.6 °F 70% 30.19 in 10.0 mi NW 8.1 mph 17.3 mph N/A   Mostly Cloudy
5:35 AM 35.6 °F 28.6 °F 26.6 °F 70% 30.19 in 10.0 mi NW 9.2 mph - N/A   Overcast
5:55 AM 35.6 °F 28.0 °F 26.6 °F 70% 30.19 in 10.0 mi NW 10.4 mph - N/A   Overcast
6:15 AM 35.6 °F 28.0 °F 26.6 °F 70% 30.18 in 10.0 mi NW 10.4 mph - N/A   Overcast
6:35 AM 35.6 °F 27.5 °F 26.6 °F 70% 30.18 in 10.0 mi NW 11.5 mph - N/A   Overcast
6:47 AM 37.4 °F 29.8 °F 26.6 °F 65% 30.19 in 7.0 mi NW 11.5 mph - N/A   Mostly Cloudy
6:55 AM 35.6 °F 27.1 °F 28.4 °F 75% 30.18 in 10.0 mi NNW 12.7 mph 18.4 mph N/A   Overcast
7:48 AM 37.4 °F 32.8 °F 26.6 °F 65% 30.18 in 7.0 mi West 5.8 mph - N/A   Mostly Cloudy
8:49 AM 37.4 °F 29.8 °F 24.8 °F 60% 30.19 in 7.0 mi WNW 11.5 mph - N/A   Mostly Cloudy
9:47 AM 42.8 °F 39.3 °F 26.6 °F 53% 30.18 in 10.0 mi WNW 5.8 mph - N/A   Mostly Cloudy
10:47 AM 46.4 °F 44.3 °F 24.8 °F 43% 30.17 in 7.0 mi WNW 4.6 mph - N/A   Scattered Clouds
11:47 AM 53.6 °F - 26.6 °F 35% 30.16 in 7.0 mi SE 8.1 mph - N/A   Partly Cloudy
12:47 PM 57.2 °F - 30.2 °F 36% 30.13 in 7.0 mi East 10.4 mph - N/A   Mostly Cloudy
1:47 PM 60.8 °F - 30.2 °F 31% 30.11 in 10.0 mi ESE 12.7 mph - N/A   Scattered Clouds
2:47 PM 60.8 °F - 32.0 °F 34% 30.08 in 10.0 mi South 4.6 mph - N/A   Scattered Clouds
3:47 PM 64.4 °F - 32.0 °F 30% 30.07 in 10.0 mi SSW 11.5 mph - N/A   Scattered Clouds
4:50 PM 64.4 °F - 33.8 °F 32% 30.05 in 10.0 mi SSW 9.2 mph - N/A   Scattered Clouds
5:50 PM 62.6 °F - 33.8 °F 34% 30.04 in 10.0 mi SSW 12.7 mph - N/A   Scattered Clouds
6:47 PM 60.8 °F - 30.2 °F 31% 30.05 in 10.0 mi SW 13.8 mph - N/A   Scattered Clouds
8:47 PM 55.4 °F - 35.6 °F 47% 30.06 in 10.0 mi West 4.6 mph - N/A   Clear
9:47 PM 50.0 °F - 37.4 °F 62% 30.06 in 10.0 mi West 4.6 mph - N/A   Clear
10:47 PM 48.2 °F - 37.4 °F 66% 30.06 in 10.0 mi NW 10.4 mph - N/A   Clear
11:35 PM 46.4 °F 40.4 °F 35.6 °F 66% 30.06 in 10.0 mi NNW 13.8 mph - N/A   Clear
11:55 PM 46.4 °F 39.8 °F 37.4 °F 71% 30.07 in 10.0 mi NNW 16.1 mph - N/A   Clear